STARLINK-5326 (55656 NORAD) Tracking and Keplerian Element Data

This shows tracking and keplerian element data for the satellite.

Feedback or suggestion? Click here.




ElementValue
Catalog55656
NameSTARLINK-5326
Epoch Orbit130
Epoch Day62.91667824
Epoch Year2023
RAAN110.1905
Inclination69.9997
Eccentricity0.0003619
Argument of Perigee280.2447
Mean Anonmoly322.7014
Mean Motion15.75139338
Decay Rate-0.01028974
L11 55656U 23021AE 23062.91667824 -.01028974 00000+0 -75917-2 0 9994
L22 55656 69.9997 110.1905 0003619 280.2447 322.7014 15.75139338 1309



Live tracking and technical data element details for STARLINK-5326 (NORAD 55656). STARLINK-5326 can be tracked NOW for your location showing map with azimuth and elevation plus other details from your city location.







IsCatalogInMostPopularTable: catalog: 55656, numindb: 2
Update: records affected: 1



GetName: 55656 STARLINK-5326

Hit Count: updated at: Wed, 22 Mar 2023 17:11:12 GMT